| time (UTC) | temp F | wind direction | speed knots | gust knots | rain 1hr in | rain 24hr in | rain mn in | humidity % | barometer mb |
| 20260503235419 | 54 | 140 | 0.9 | 3.5 | 0.02 | 0.09 | 0.02 | 94 | 949.5 |
| 20260503234918 | 55 | 131 | 2.6 | 3.5 | 0.02 | 0.09 | 0.02 | 93 | 949.5 |
| 20260503234419 | 55 | 133 | 1.7 | 2.6 | 0.02 | 0.09 | 0.02 | 93 | 949.4 |
| 20260503233918 | 55 | 235 | 0.0 | 1.7 | 0.02 | 0.09 | 0.02 | 93 | 949.4 |
| 20260503233419 | 55 | 235 | 0.0 | 0.9 | 0.02 | 0.09 | 0.02 | 93 | 949.3 |
| 20260503233126 | 55 | 234 | 0.0 | 0.0 | 0.02 | 0.09 | 0.02 | 93 | 949.3 |
| 20260503232626 | 55 | 234 | 0.0 | 1.7 | 0.02 | 0.09 | 0.02 | 92 | 949.4 |
| 20260503231917 | 55 | 235 | 0.0 | 1.7 | 0.02 | 0.09 | 0.02 | 92 | 949.4 |
| 20260503231626 | 55 | 237 | 0.0 | 1.7 | 0.02 | 0.09 | 0.02 | 92 | 949.4 |
| 20260503230917 | 55 | 237 | 0.9 | 2.6 | 0.01 | 0.09 | 0.01 | 92 | 949.5 |
| 20260503230625 | 55 | 310 | 0.9 | 2.6 | 0.00 | 0.09 | 0.00 | 92 | 949.5 |
| 20260503230125 | 55 | 316 | 0.0 | 3.5 | 0.00 | 0.09 | 0.00 | 91 | 949.4 |
| 20260503225418 | 56 | 323 | 1.7 | 3.5 | 0.00 | 0.09 | 0.00 | 90 | 949.4 |
| 20260503224917 | 56 | 223 | 0.9 | 3.5 | 0.00 | 0.10 | 0.00 | 90 | 949.4 |
| 20260503224417 | 56 | 282 | 0.9 | 4.3 | 0.00 | 0.11 | 0.00 | 90 | 949.5 |
| 20260503223917 | 56 | 300 | 1.7 | 4.3 | 0.00 | 0.11 | 0.00 | 91 | 949.5 |
| 20260503223417 | 55 | 285 | 0.9 | 3.5 | 0.00 | 0.12 | 0.00 | 92 | 949.5 |
| 20260503222917 | 55 | 290 | 0.0 | 1.7 | 0.00 | 0.12 | 0.00 | 93 | 949.4 |
| 20260503222417 | 55 | 292 | 0.0 | 1.7 | 0.00 | 0.13 | 0.00 | 93 | 949.6 |
| 20260503221916 | 55 | 292 | 0.0 | 1.7 | 0.00 | 0.14 | 0.00 | 93 | 949.6 |
| 20260503221416 | 55 | 288 | 0.0 | 1.7 | 0.00 | 0.15 | 0.00 | 94 | 949.5 |
| 20260503221125 | 55 | 317 | 0.0 | 0.0 | 0.00 | 0.16 | 0.00 | 94 | 949.5 |
| 20260503220417 | 55 | 317 | 0.0 | 1.7 | 0.00 | 0.17 | 0.00 | 94 | 949.6 |
| 20260503215916 | 55 | 317 | 0.0 | 1.7 | 0.00 | 0.17 | 0.17 | 94 | 949.6 |
| 20260503215416 | 55 | 319 | 0.0 | 1.7 | 0.00 | 0.18 | 0.17 | 94 | 949.6 |
| 20260503214916 | 55 | 274 | 0.0 | 0.9 | 0.00 | 0.19 | 0.17 | 94 | 949.5 |
| 20260503214624 | 55 | 274 | 0.0 | 0.0 | 0.00 | 0.20 | 0.17 | 94 | 949.6 |
| 20260503213916 | 55 | 274 | 0.0 | 0.9 | 0.00 | 0.20 | 0.17 | 94 | 949.5 |
| 20260503213415 | 55 | 274 | 0.0 | 0.9 | 0.00 | 0.20 | 0.17 | 94 | 949.5 |
| 20260503213124 | 55 | 274 | 0.0 | 1.7 | 0.00 | 0.21 | 0.17 | 93 | 949.6 |
| 20260503212415 | 55 | 274 | 0.0 | 1.7 | 0.00 | 0.22 | 0.17 | 93 | 949.7 |
| 20260503211915 | 56 | 244 | 0.0 | 1.7 | 0.00 | 0.22 | 0.17 | 94 | 949.6 |
| 20260503211415 | 56 | 228 | 0.9 | 1.7 | 0.00 | 0.23 | 0.17 | 94 | 949.6 |
| 20260503210915 | 56 | 275 | 0.0 | 1.7 | 0.00 | 0.24 | 0.17 | 94 | 949.6 |
| 20260503210415 | 56 | 269 | 0.0 | 0.9 | 0.00 | 0.24 | 0.17 | 94 | 949.7 |
| 20260503205916 | 56 | 255 | 0.0 | 0.9 | 0.00 | 0.24 | 0.17 | 94 | 949.8 |
| 20260503205415 | 56 | 255 | 0.0 | 0.9 | 0.00 | 0.24 | 0.17 | 94 | 949.8 |
| 20260503205124 | 56 | 255 | 0.0 | 0.0 | 0.00 | 0.24 | 0.17 | 94 | 949.8 |
| 20260503204623 | 56 | 255 | 0.0 | 0.0 | 0.00 | 0.24 | 0.17 | 94 | 949.9 |
| 20260503203914 | 56 | 255 | 0.0 | 1.7 | 0.00 | 0.24 | 0.17 | 93 | 949.8 |
| 20260503203414 | 56 | 255 | 0.0 | 3.5 | 0.00 | 0.24 | 0.17 | 93 | 949.8 |
| 20260503202914 | 56 | 255 | 0.9 | 3.5 | 0.00 | 0.24 | 0.17 | 94 | 949.7 |
| 20260503202414 | 56 | 244 | 0.9 | 1.7 | 0.00 | 0.24 | 0.17 | 94 | 949.7 |
| 20260503201914 | 56 | 234 | 0.0 | 1.7 | 0.00 | 0.24 | 0.17 | 95 | 949.7 |
| 20260503201622 | 56 | 235 | 0.0 | 1.7 | 0.00 | 0.24 | 0.17 | 95 | 949.7 |
| 20260503201122 | 56 | 220 | 0.0 | 0.9 | 0.00 | 0.24 | 0.17 | 95 | 949.6 |
| 20260503200414 | 56 | 152 | 0.0 | 0.0 | 0.00 | 0.24 | 0.17 | 95 | 949.5 |
| 20260503195913 | 56 | 152 | 0.0 | 0.0 | 0.00 | 0.24 | 0.17 | 94 | 949.6 |
| 20260503195622 | 56 | 152 | 0.0 | 0.9 | 0.00 | 0.24 | 0.17 | 94 | 949.5 |
| 20260503194913 | 56 | 152 | 0.0 | 0.9 | 0.00 | 0.24 | 0.17 | 94 | 949.4 |
| 20260503194621 | 56 | 152 | 0.0 | 1.7 | 0.00 | 0.24 | 0.17 | 94 | 949.3 |
| 20260503194122 | 56 | 152 | 0.9 | 1.7 | 0.00 | 0.24 | 0.17 | 94 | 949.3 |
| 20260503193414 | 56 | 149 | 0.9 | 1.7 | 0.00 | 0.24 | 0.17 | 94 | 949.2 |
| 20260503193121 | 56 | 137 | 0.0 | 0.0 | 0.00 | 0.24 | 0.17 | 94 | 949.1 |
| 20260503192413 | 56 | 135 | 0.0 | 0.0 | 0.00 | 0.24 | 0.17 | 94 | 949.1 |
| 20260503192121 | 56 | 137 | 0.0 | 0.9 | 0.00 | 0.24 | 0.17 | 94 | 949.0 |
| 20260503191413 | 56 | 135 | 0.0 | 0.9 | 0.01 | 0.24 | 0.17 | 94 | 949.1 |
| 20260503191121 | 56 | 135 | 0.0 | 0.9 | 0.01 | 0.24 | 0.17 | 94 | 948.9 |
| 20260503190412 | 56 | 343 | 0.0 | 0.9 | 0.01 | 0.24 | 0.17 | 93 | 948.9 |
| 20260503185913 | 56 | 343 | 0.0 | 0.9 | 0.01 | 0.23 | 0.17 | 93 | 948.8 |
| 20260503185413 | 56 | 343 | 0.0 | 0.9 | 0.01 | 0.23 | 0.17 | 93 | 948.8 |
| 20260503184912 | 57 | 341 | 0.0 | 0.0 | 0.02 | 0.23 | 0.17 | 92 | 948.8 |
| 20260503184411 | 57 | 341 | 0.0 | 0.0 | 0.02 | 0.24 | 0.17 | 92 | 948.7 |
| 20260503183912 | 57 | 341 | 0.0 | 0.0 | 0.02 | 0.24 | 0.17 | 92 | 948.7 |
| 20260503183412 | 57 | 343 | 0.0 | 0.0 | 0.02 | 0.24 | 0.17 | 92 | 948.8 |
| 20260503182911 | 57 | 341 | 0.0 | 0.0 | 0.02 | 0.24 | 0.17 | 91 | 948.8 |
| 20260503182412 | 57 | 343 | 0.0 | 0.9 | 0.02 | 0.24 | 0.17 | 91 | 948.8 |
| 20260503181912 | 57 | 341 | 0.0 | 1.7 | 0.02 | 0.25 | 0.17 | 90 | 948.7 |
| 20260503181411 | 58 | 343 | 0.0 | 3.5 | 0.02 | 0.27 | 0.17 | 89 | 948.7 |
| 20260503180911 | 58 | 337 | 0.0 | 3.5 | 0.02 | 0.28 | 0.17 | 88 | 948.8 |
| 20260503180411 | 58 | 79 | 0.9 | 4.3 | 0.02 | 0.30 | 0.17 | 87 | 948.7 |
| 20260503175911 | 58 | 80 | 0.0 | 4.3 | 0.02 | 0.30 | 0.17 | 87 | 948.7 |
| 20260503175409 | 58 | 58 | 1.7 | 4.3 | 0.02 | 0.33 | 0.17 | 87 | 948.8 |
| 20260503175112 | 58 | 28 | 2.6 | 8.7 | 0.01 | 0.36 | 0.16 | 86 | 948.8 |
| 20260503174403 | 59 | 7 | 4.3 | 10.4 | 0.00 | 0.37 | 0.15 | 85 | 948.8 |
| 20260503173906 | 59 | 133 | 4.3 | 10.4 | 0.00 | 0.39 | 0.15 | 84 | 948.8 |
| 20260503173902 | 59 | 158 | 4.3 | 10.4 | 0.00 | 0.39 | 0.15 | 84 | 948.8 |
| 20260503173611 | 58 | 62 | 3.5 | 5.2 | 0.00 | 0.42 | 0.15 | 86 | 948.8 |
| 20260503172906 | 59 | 110 | 0.9 | 2.6 | 0.00 | 0.44 | 0.15 | 88 | 948.8 |
| 20260503172902 | 59 | 110 | 0.9 | 2.6 | 0.00 | 0.44 | 0.15 | 87 | 948.8 |
| 20260503172402 | 59 | 75 | 0.9 | 1.7 | 0.00 | 0.49 | 0.15 | 87 | 948.7 |
| 20260503171903 | 59 | 312 | 0.0 | 1.7 | 0.00 | 0.59 | 0.15 | 86 | 948.6 |
| 20260503171404 | 59 | 324 | 0.0 | 2.6 | 0.00 | 0.64 | 0.15 | 86 | 948.5 |
| 20260503171400 | 59 | 324 | 0.0 | 2.6 | 0.00 | 0.65 | 0.15 | 86 | 948.5 |
| 20260503170902 | 59 | 326 | 0.9 | 2.6 | 0.00 | 0.65 | 0.15 | 85 | 948.5 |
| 20260503170853 | 59 | 326 | 0.9 | 2.6 | 0.00 | 0.65 | 0.15 | 85 | 948.5 |
| 20260503170403 | 59 | 282 | 0.9 | 2.6 | 0.00 | 0.65 | 0.15 | 85 | 948.5 |
| 20260503170345 | 59 | 295 | 0.9 | 1.7 | 0.00 | 0.65 | 0.15 | 85 | 948.5 |
| 20260503150834 | 61 | 274 | 1.7 | 4.3 | 0.00 | 0.71 | 0.15 | 83 | 948.9 |
| 20260503150542 | 61 | 303 | 2.6 | 4.3 | 0.00 | 0.71 | 0.15 | 84 | 948.9 |
| 20260503140313 | 59 | 326 | 1.7 | 5.2 | 0.05 | 0.80 | 0.15 | 91 | 949.7 |
| 20260503131308 | 58 | 13 | 4.3 | 8.7 | 0.01 | 0.96 | 0.10 | 87 | 950.2 |
| 20260503130808 | 59 | 21 | 5.2 | 8.7 | 0.01 | 0.97 | 0.10 | 87 | 950.3 |
| 20260503130308 | 59 | 357 | 4.3 | 8.7 | 0.01 | 0.97 | 0.10 | 87 | 950.3 |
| 20260503110305 | 58 | 324 | 4.3 | 5.2 | 0.00 | 1.46 | 0.08 | 88 | 951.2 |
| 20260503090307 | 56 | 317 | 0.9 | 2.6 | 0.00 | 1.46 | 0.08 | 92 | 951.6 |
| 20260503090303 | 56 | 317 | 0.9 | 2.6 | 0.00 | 1.46 | 0.08 | 92 | 951.6 |
| 20260503081510 | 56 | 288 | 0.9 | 2.6 | 0.00 | 1.46 | 0.08 | 93 | 951.5 |
| 20260503080806 | 56 | 299 | 0.9 | 2.6 | 0.00 | 1.46 | 0.08 | 92 | 951.6 |
| 20260503080802 | 56 | 310 | 0.9 | 2.6 | 0.00 | 1.46 | 0.08 | 92 | 951.6 |
| 20260503080306 | 56 | 327 | 0.9 | 2.6 | 0.00 | 1.46 | 0.08 | 93 | 951.6 |
| 20260503080302 | 56 | 290 | 0.9 | 2.6 | 0.00 | 1.46 | 0.08 | 93 | 951.6 |
| 20260503072805 | 55 | 310 | 0.0 | 0.9 | 0.00 | 1.46 | 0.08 | 94 | 951.6 |
| 20260503072801 | 55 | 310 | 0.0 | 0.9 | 0.00 | 1.46 | 0.08 | 94 | 951.6 |
| 20260503072305 | 55 | 310 | 0.0 | 2.6 | 0.00 | 1.46 | 0.08 | 93 | 951.6 |
| 20260503072300 | 55 | 310 | 0.0 | 2.6 | 0.00 | 1.46 | 0.08 | 93 | 951.6 |
| 20260503071804 | 55 | 320 | 0.0 | 2.6 | 0.00 | 1.46 | 0.08 | 93 | 951.6 |
| 20260503071800 | 55 | 320 | 0.0 | 2.6 | 0.00 | 1.46 | 0.08 | 93 | 951.6 |
| 20260503071304 | 55 | 314 | 0.0 | 2.6 | 0.00 | 1.46 | 0.08 | 93 | 951.6 |
| 20260503071300 | 55 | 314 | 0.0 | 2.6 | 0.00 | 1.46 | 0.08 | 93 | 951.6 |
| 20260503070804 | 55 | 314 | 0.9 | 3.5 | 0.00 | 1.46 | 0.08 | 93 | 951.5 |
| 20260503070800 | 55 | 314 | 0.9 | 3.5 | 0.00 | 1.46 | 0.08 | 93 | 951.5 |
| 20260503070508 | 55 | 309 | 0.9 | 3.5 | 0.00 | 1.46 | 0.08 | 94 | 951.6 |
| 20260503060302 | 54 | 279 | 0.9 | 5.2 | 0.00 | 1.46 | 0.08 | 93 | 951.5 |
| 20260503060258 | 54 | 281 | 0.9 | 5.2 | 0.00 | 1.46 | 0.08 | 93 | 951.5 |
| 20260503054802 | 54 | 272 | 0.9 | 3.5 | 0.00 | 1.46 | 0.08 | 94 | 951.4 |
| 20260503054758 | 54 | 272 | 0.9 | 3.5 | 0.00 | 1.46 | 0.08 | 94 | 951.4 |
| 20260503054304 | 54 | 275 | 0.0 | 3.5 | 0.00 | 1.46 | 0.08 | 94 | 951.5 |
| 20260503054258 | 54 | 268 | 0.0 | 3.5 | 0.00 | 1.46 | 0.08 | 94 | 951.5 |
| 20260503053803 | 54 | 307 | 0.9 | 2.6 | 0.00 | 1.46 | 0.08 | 94 | 951.4 |
| 20260503053758 | 54 | 275 | 0.9 | 1.7 | 0.00 | 1.46 | 0.08 | 94 | 951.4 |
| 20260503053302 | 54 | 281 | 0.0 | 1.7 | 0.00 | 1.46 | 0.08 | 94 | 951.4 |
| 20260503053258 | 54 | 281 | 0.0 | 1.7 | 0.00 | 1.46 | 0.08 | 94 | 951.4 |
| 20260503052802 | 54 | 281 | 0.0 | 1.7 | 0.00 | 1.46 | 0.08 | 94 | 951.4 |
| 20260503052758 | 54 | 281 | 0.0 | 1.7 | 0.00 | 1.46 | 0.08 | 94 | 951.4 |
| 20260503052305 | 54 | 286 | 0.0 | 3.5 | 0.00 | 1.46 | 0.08 | 94 | 951.4 |
| 20260503052258 | 54 | 286 | 0.0 | 3.5 | 0.00 | 1.46 | 0.08 | 94 | 951.4 |
| 20260503051802 | 54 | 289 | 0.9 | 3.5 | 0.00 | 1.46 | 0.08 | 94 | 951.4 |
| 20260503051757 | 54 | 290 | 0.9 | 3.5 | 0.00 | 1.46 | 0.08 | 94 | 951.4 |
| 20260503051506 | 53 | 257 | 0.9 | 2.6 | 0.00 | 1.46 | 0.08 | 94 | 951.4 |
| 20260503050802 | 53 | 274 | 0.0 | 2.6 | 0.00 | 1.46 | 0.08 | 94 | 951.3 |
| 20260503050758 | 53 | 274 | 0.0 | 2.6 | 0.00 | 1.46 | 0.08 | 94 | 951.3 |
| 20260503050302 | 53 | 278 | 0.0 | 0.9 | 0.00 | 1.46 | 0.08 | 94 | 951.3 |
| 20260503050257 | 53 | 278 | 0.0 | 0.9 | 0.00 | 1.46 | 0.08 | 94 | 951.3 |
| 20260503045802 | 53 | 257 | 0.0 | 0.9 | 0.00 | 1.46 | 0.08 | 94 | 951.3 |
| 20260503045757 | 53 | 257 | 0.0 | 0.9 | 0.00 | 1.46 | 0.08 | 94 | 951.3 |
| 20260503045301 | 53 | 257 | 0.0 | 0.9 | 0.00 | 1.46 | 0.08 | 94 | 951.3 |
| 20260503045257 | 53 | 257 | 0.0 | 0.9 | 0.00 | 1.46 | 0.08 | 94 | 951.3 |
| 20260503044802 | 53 | 274 | 0.0 | 0.9 | 0.00 | 1.46 | 0.08 | 94 | 951.3 |
| 20260503044757 | 53 | 274 | 0.0 | 0.9 | 0.00 | 1.46 | 0.08 | 94 | 951.3 |
| 20260503044506 | 53 | 274 | 0.0 | 1.7 | 0.00 | 1.46 | 0.08 | 94 | 951.3 |
| 20260503043803 | 53 | 281 | 0.9 | 1.7 | 0.00 | 1.46 | 0.08 | 94 | 951.4 |
| 20260503043757 | 53 | 281 | 0.9 | 1.7 | 0.00 | 1.46 | 0.08 | 94 | 951.4 |
| 20260503043302 | 53 | 305 | 0.9 | 1.7 | 0.00 | 1.46 | 0.08 | 94 | 951.4 |
| 20260503043257 | 53 | 314 | 0.9 | 1.7 | 0.00 | 1.46 | 0.08 | 94 | 951.4 |
| 20260503042802 | 53 | 282 | 0.0 | 3.5 | 0.00 | 1.46 | 0.08 | 94 | 951.5 |
| 20260503042756 | 53 | 283 | 0.0 | 3.5 | 0.00 | 1.46 | 0.08 | 94 | 951.5 |
| 20260503042304 | 53 | 265 | 0.9 | 3.5 | 0.00 | 1.46 | 0.08 | 94 | 951.5 |
| 20260503042257 | 53 | 266 | 0.9 | 3.5 | 0.00 | 1.46 | 0.08 | 94 | 951.5 |
| 20260503042005 | 53 | 262 | 0.9 | 1.7 | 0.00 | 1.46 | 0.08 | 94 | 951.5 |
| 20260503041302 | 53 | 264 | 0.0 | 1.7 | 0.00 | 1.46 | 0.08 | 94 | 951.5 |
| 20260503041256 | 53 | 264 | 0.0 | 1.7 | 0.00 | 1.46 | 0.08 | 94 | 951.5 |
| 20260503041004 | 53 | 282 | 0.0 | 3.5 | 0.00 | 1.46 | 0.08 | 94 | 951.5 |
| 20260503040303 | 53 | 250 | 0.9 | 3.5 | 0.00 | 1.46 | 0.08 | 94 | 951.4 |
| 20260503040256 | 53 | 250 | 0.9 | 3.5 | 0.00 | 1.46 | 0.08 | 94 | 951.4 |
| 20260503035803 | 53 | 274 | 0.9 | 2.6 | 0.00 | 1.46 | 0.08 | 94 | 951.4 |
| 20260503035756 | 53 | 293 | 0.9 | 2.6 | 0.00 | 1.46 | 0.08 | 94 | 951.4 |
| 20260503035505 | 53 | 307 | 0.9 | 2.6 | 0.00 | 1.46 | 0.08 | 93 | 951.5 |
| 20260503034802 | 53 | 288 | 0.9 | 7.8 | 0.00 | 1.46 | 0.08 | 93 | 951.5 |
| 20260503034756 | 53 | 300 | 0.9 | 7.8 | 0.00 | 1.46 | 0.08 | 93 | 951.5 |
| 20260503034302 | 53 | 281 | 1.7 | 7.8 | 0.00 | 1.46 | 0.08 | 93 | 951.5 |
| 20260503034255 | 53 | 274 | 1.7 | 7.8 | 0.00 | 1.46 | 0.08 | 93 | 951.5 |
| 20260503033802 | 53 | 299 | 0.9 | 3.5 | 0.00 | 1.46 | 0.08 | 93 | 951.6 |
| 20260503033755 | 53 | 282 | 0.0 | 2.6 | 0.00 | 1.46 | 0.08 | 93 | 951.6 |
| 20260503033504 | 53 | 323 | 0.9 | 4.3 | 0.00 | 1.46 | 0.08 | 93 | 951.4 |
| 20260503032802 | 53 | 269 | 2.6 | 6.1 | 0.00 | 1.46 | 0.08 | 93 | 951.5 |
| 20260503032756 | 53 | 310 | 2.6 | 6.1 | 0.00 | 1.46 | 0.08 | 93 | 951.5 |
| 20260503032304 | 53 | 292 | 2.6 | 6.1 | 0.00 | 1.46 | 0.08 | 93 | 951.3 |
| 20260503032256 | 53 | 281 | 2.6 | 6.1 | 0.00 | 1.46 | 0.08 | 93 | 951.3 |
| 20260503031803 | 53 | 293 | 1.7 | 5.2 | 0.00 | 1.46 | 0.08 | 93 | 951.3 |
| 20260503031755 | 53 | 274 | 2.6 | 5.2 | 0.00 | 1.46 | 0.08 | 93 | 951.3 |
| 20260503031504 | 53 | 299 | 1.7 | 3.5 | 0.00 | 1.46 | 0.08 | 93 | 951.3 |
| 20260503030803 | 53 | 300 | 1.7 | 5.2 | 0.00 | 1.46 | 0.08 | 93 | 951.5 |
| 20260503030755 | 53 | 292 | 1.7 | 5.2 | 0.00 | 1.46 | 0.08 | 93 | 951.5 |
| 20260503030303 | 53 | 305 | 2.6 | 5.2 | 0.00 | 1.46 | 0.08 | 93 | 951.7 |
| 20260503030255 | 53 | 290 | 2.6 | 5.2 | 0.00 | 1.46 | 0.08 | 93 | 951.7 |
| 20260503025802 | 53 | 269 | 1.7 | 3.5 | 0.00 | 1.46 | 0.08 | 93 | 951.8 |
| 20260503025754 | 53 | 278 | 0.9 | 3.5 | 0.00 | 1.46 | 0.08 | 93 | 951.8 |
| 20260503025305 | 53 | 248 | 1.7 | 4.3 | 0.00 | 1.46 | 0.08 | 93 | 951.8 |
| 20260503025255 | 53 | 250 | 1.7 | 4.3 | 0.00 | 1.46 | 0.08 | 93 | 951.8 |
| 20260503024802 | 53 | 264 | 2.6 | 5.2 | 0.00 | 1.46 | 0.08 | 93 | 951.8 |
| 20260503024755 | 53 | 286 | 2.6 | 5.2 | 0.00 | 1.46 | 0.08 | 93 | 951.8 |
| 20260503024302 | 53 | 313 | 2.6 | 5.2 | 0.00 | 1.46 | 0.08 | 93 | 951.8 |
| 20260503024255 | 53 | 283 | 2.6 | 5.2 | 0.00 | 1.46 | 0.08 | 93 | 951.8 |
| 20260503023802 | 53 | 271 | 3.5 | 7.8 | 0.00 | 1.46 | 0.08 | 93 | 951.9 |
| 20260503023755 | 53 | 279 | 3.5 | 7.8 | 0.00 | 1.46 | 0.08 | 93 | 951.9 |
| 20260503023302 | 53 | 323 | 1.7 | 7.8 | 0.00 | 1.46 | 0.08 | 94 | 951.8 |
| 20260503023254 | 53 | 313 | 1.7 | 7.8 | 0.00 | 1.46 | 0.08 | 94 | 951.8 |
| 20260503023003 | 53 | 261 | 2.6 | 6.1 | 0.00 | 1.46 | 0.08 | 94 | 951.9 |
| 20260503022503 | 53 | 293 | 1.7 | 3.5 | 0.00 | 1.46 | 0.08 | 94 | 952.0 |
| 20260503021802 | 53 | 285 | 0.9 | 5.2 | 0.00 | 1.46 | 0.08 | 94 | 952.1 |
| 20260503021755 | 53 | 286 | 0.9 | 5.2 | 0.00 | 1.46 | 0.08 | 94 | 952.1 |
| 20260503021302 | 53 | 317 | 1.7 | 5.2 | 0.00 | 1.46 | 0.08 | 94 | 952.0 |
| 20260503021254 | 53 | 276 | 1.7 | 5.2 | 0.00 | 1.46 | 0.08 | 94 | 952.0 |
| 20260503020802 | 53 | 282 | 0.9 | 3.5 | 0.00 | 1.46 | 0.08 | 95 | 952.0 |
| 20260503020754 | 53 | 293 | 0.9 | 3.5 | 0.00 | 1.46 | 0.08 | 95 | 952.0 |
| 20260503020303 | 53 | 317 | 1.7 | 3.5 | 0.00 | 1.46 | 0.08 | 95 | 952.0 |
| 20260503020254 | 53 | 317 | 1.7 | 3.5 | 0.00 | 1.46 | 0.08 | 95 | 952.0 |
| 20260503015802 | 53 | 290 | 0.9 | 1.7 | 0.00 | 1.46 | 0.08 | 95 | 952.1 |
| 20260503015753 | 53 | 290 | 0.9 | 1.7 | 0.00 | 1.46 | 0.08 | 95 | 952.1 |
| 20260503015305 | 53 | 314 | 0.0 | 2.6 | 0.00 | 1.46 | 0.08 | 94 | 952.2 |
| 20260503015253 | 53 | 314 | 0.0 | 2.6 | 0.00 | 1.46 | 0.08 | 94 | 952.2 |
| 20260503014802 | 53 | 316 | 0.9 | 2.6 | 0.00 | 1.46 | 0.08 | 94 | 952.3 |
| 20260503014753 | 53 | 316 | 1.7 | 2.6 | 0.00 | 1.46 | 0.08 | 94 | 952.3 |
| 20260503014302 | 53 | 313 | 0.9 | 3.5 | 0.00 | 1.46 | 0.08 | 95 | 952.3 |
| 20260503014253 | 53 | 313 | 0.9 | 3.5 | 0.00 | 1.46 | 0.08 | 95 | 952.3 |
| 20260503013801 | 53 | 303 | 0.9 | 3.5 | 0.00 | 1.46 | 0.08 | 95 | 952.4 |
| 20260503013753 | 53 | 305 | 0.9 | 3.5 | 0.00 | 1.46 | 0.08 | 95 | 952.4 |
| 20260503013302 | 53 | 305 | 0.0 | 3.5 | 0.00 | 1.46 | 0.08 | 95 | 952.4 |
| 20260503013254 | 53 | 305 | 0.0 | 3.5 | 0.00 | 1.46 | 0.08 | 95 | 952.4 |
| 20260503012802 | 53 | 303 | 0.9 | 3.5 | 0.00 | 1.46 | 0.08 | 95 | 952.4 |
| 20260503012753 | 53 | 309 | 1.7 | 3.5 | 0.00 | 1.46 | 0.08 | 95 | 952.4 |
| 20260503012305 | 53 | 266 | 1.7 | 6.1 | 0.00 | 1.46 | 0.08 | 95 | 952.5 |
| 20260503012253 | 53 | 257 | 1.7 | 6.1 | 0.00 | 1.46 | 0.08 | 95 | 952.5 |
| 20260503011802 | 53 | 290 | 1.7 | 6.1 | 0.00 | 1.46 | 0.08 | 95 | 952.4 |
| 20260503011753 | 53 | 293 | 1.7 | 6.1 | 0.00 | 1.46 | 0.08 | 95 | 952.4 |
| 20260503011302 | 53 | 309 | 4.3 | 6.1 | 0.00 | 1.46 | 0.08 | 95 | 952.6 |
| 20260503011253 | 53 | 275 | 4.3 | 6.1 | 0.00 | 1.46 | 0.08 | 95 | 952.6 |
| 20260503010802 | 53 | 299 | 2.6 | 6.1 | 0.00 | 1.46 | 0.08 | 95 | 952.6 |
| 20260503010752 | 53 | 298 | 2.6 | 6.1 | 0.00 | 1.46 | 0.08 | 95 | 952.6 |
| 20260503010301 | 52 | 302 | 1.7 | 4.3 | 0.00 | 1.46 | 0.08 | 95 | 952.6 |
| 20260503010253 | 52 | 258 | 1.7 | 4.3 | 0.00 | 1.46 | 0.08 | 95 | 952.6 |
| 20260503005802 | 52 | 259 | 0.9 | 3.5 | 0.00 | 1.46 | 0.08 | 95 | 952.6 |
| 20260503005753 | 52 | 261 | 1.7 | 3.5 | 0.00 | 1.46 | 0.08 | 95 | 952.6 |
| 20260503005304 | 52 | 261 | 0.9 | 3.5 | 0.00 | 1.46 | 0.08 | 95 | 952.7 |
| 20260503005252 | 52 | 261 | 0.9 | 3.5 | 0.00 | 1.46 | 0.08 | 95 | 952.7 |
| 20260503004802 | 52 | 255 | 0.9 | 2.6 | 0.00 | 1.46 | 0.08 | 95 | 952.7 |
| 20260503004752 | 52 | 255 | 0.9 | 2.6 | 0.00 | 1.46 | 0.08 | 95 | 952.7 |
| 20260503004302 | 52 | 257 | 0.0 | 2.6 | 0.00 | 1.46 | 0.08 | 95 | 952.7 |
| 20260503004252 | 52 | 257 | 0.9 | 2.6 | 0.00 | 1.46 | 0.08 | 95 | 952.7 |
| 20260503004000 | 52 | 251 | 0.9 | 6.1 | 0.00 | 1.46 | 0.08 | 95 | 952.6 |
| 20260503003302 | 52 | 329 | 1.7 | 6.1 | 0.00 | 1.46 | 0.08 | 95 | 952.7 |
| 20260503003252 | 52 | 344 | 1.7 | 6.1 | 0.00 | 1.46 | 0.08 | 95 | 952.7 |
| 20260503002802 | 52 | 262 | 1.7 | 5.2 | 0.00 | 1.46 | 0.08 | 95 | 952.7 |
| 20260503002751 | 52 | 255 | 1.7 | 5.2 | 0.00 | 1.46 | 0.08 | 95 | 952.7 |
| 20260503002500 | 52 | 324 | 1.7 | 4.3 | 0.00 | 1.46 | 0.08 | 95 | 952.8 |
| 20260503001802 | 53 | 324 | 2.6 | 4.3 | 0.00 | 1.46 | 0.08 | 95 | 952.8 |
| 20260503001751 | 53 | 309 | 1.7 | 4.3 | 0.00 | 1.46 | 0.08 | 95 | 952.8 |
| 20260503001500 | 53 | 320 | 1.7 | 5.2 | 0.00 | 1.46 | 0.08 | 95 | 952.9 |
| 20260503000802 | 53 | 302 | 1.7 | 6.1 | 0.00 | 1.46 | 0.08 | 95 | 952.8 |
| 20260503000751 | 53 | 300 | 1.7 | 7.8 | 0.00 | 1.46 | 0.08 | 95 | 952.8 |
| 20260503000302 | 53 | 314 | 2.6 | 8.7 | 0.00 | 1.46 | 0.08 | 94 | 952.7 |
| 20260503000251 | 53 | 309 | 2.6 | 9.6 | 0.00 | 1.46 | 0.08 | 94 | 952.7 |